Location: Hemaruka
(51.7801°N, 111.0917°W)
Time: 01:25:52
(UTC+00:00)

MOZHAYETS 4 - Visible Passes

Search period start: 07 December 2023 00:00
Search period end: 17 December 2023 00:00
Orbit: 656 x 672 km, 98.3° (Epoch: 06 December)

Date Brightness Start Highest point End Pass type
(mag) Time Alt. Az. Time Alt. Az. Time Alt. Az.
07 Dec 10.2 01:06:05 10° NNW 01:09:18 19° WNW 01:12:30 10° W visible
07 Dec 8.3 23:59:06 10° N 00:03:39 61° WNW 00:08:12 10° SSW visible
08 Dec 10.5 01:38:13 10° NNW 01:39:44 11° NW 01:41:14 10° WNW visible
09 Dec 9.3 00:30:12 10° N 00:34:21 34° WNW 00:38:29 10° SW visible
10 Dec 10.1 01:01:33 10° N 01:04:55 20° WNW 01:08:17 10° WSW visible
10 Dec 8.1 23:54:38 10° N 23:59:14 67° WNW 00:03:48 10° SSW visible
11 Dec 10.5 01:33:28 10° NNW 01:35:22 12° NW 01:37:15 10° WNW visible
12 Dec 9.1 00:25:42 10° N 00:29:57 37° WNW 00:34:10 10° SW visible
13 Dec 10.0 00:56:59 10° N 01:00:31 22° WNW 01:04:02 10° WSW visible
13 Dec 8.0 23:50:10 10° NNE 23:54:47 73° WNW 23:59:22 10° SSW visible
14 Dec 10.4 01:28:45 10° NNW 01:30:58 13° NW 01:33:11 10° W visible
15 Dec 9.0 00:21:11 10° N 00:25:30 40° WNW 00:29:48 10° SW visible
16 Dec 9.8 00:52:26 10° N 00:56:05 24° WNW 00:59:44 10° WSW visible
16 Dec 7.9 23:45:40 10° NNE 23:50:18 80° WNW 23:54:54 10° SSW visible
